Location: Santa Cristina
(46.5667°N, 11.7167°E)
Time: 03:58:43
(UTC+00:00)

Sich 1 Rocket - Pass Details

Date: 21 April 2021
Orbit: 617 x 651 km, 82.5° (Epoch: 10 May)

Event Time Altitude Azimuth Distance (km) Brightness Sun altitude
Rises 02:38:33 0° 345° (NNW) 2,978 7.4 -15.5°
Reaches altitude 10° 02:40:52 10° 339° (NNW) 2,065 6.4 -15.2°
Maximum altitude 02:45:14 44° 267° (W) 898 4.0 -14.6°
Enters shadow 02:48:26 17° 202° (SSW) 1,632 5.2 -14.1°
